Location: Felsheim
(48.7267°N, 10.7386°E)
Time: 13:24:28
(UTC+00:00)

MONITOR-E - Pass Details

Date: 09 April 2020
Orbit: 308 x 313 km, 97.0° (Epoch: 27 May)

Event Time Altitude Azimuth Distance (km) Brightness Sun altitude
Rises 17:15:45 0° 97° (E) 2,069 7.1 6.4°
Enters shadow 18:14:52 -66° 168° (SSE) 11,973 11.5 -3.2°
Maximum altitude 18:48:05 81° 76° (ENE) 333 3.6 -8.3°
